QPF
0.03 0.09 0.21 0.18 0.13 0.12 0.12 0.14 0.13 0.13 0.11 0.11 0.09 0.07 0.07 0.07 0.09 0.08 0.07 0.07 0.05 0.04 0.04 0.03 0.03 0.04 0.04 0.05 0.05 0.04 0.03 0.02 0.03 0.03 0.03 0.03 0.03 0.04 0.04 0.03 0.02 0.01 0.02
0.02 0.06 0.14 0.15 0.13 0.13 0.13 0.13 0.11 0.10 0.09 0.08 0.06 0.06 0.07 0.08 0.08 0.06 0.06 0.05 0.05 0.04 0.04 0.04 0.03 0.04 0.04 0.04 0.04 0.04 0.03 0.03 0.04 0.03 0.04 0.02 0.02 0.03 0.03 0.03 0.02 0.02 0.02
0.02 0.03 0.08 0.15 0.15 0.12 0.10 0.10 0.09 0.07 0.06 0.06 0.05 0.05 0.05 0.06 0.06 0.05 0.06 0.05 0.05 0.04 0.05 0.04 0.03 0.03 0.03 0.02 0.03 0.04 0.03 0.02 0.03 0.03 0.03 0.01 0.01 0.02 0.02 0.02 0.02 0.02 0.01
0.02 0.03 0.08 0.11 0.11 0.10 0.09 0.06 0.05 0.04 0.03 0.03 0.03 0.04 0.05 0.05 0.06 0.05 0.06 0.05 0.05 0.05 0.05 0.03 0.02 0.02 0.02 0.02 0.02 0.03 0.03 0.03 0.03 0.03 0.02 0.02 0.01 0.02 0.01 0.01 0.01 0.00 0.01
0.02 0.05 0.08 0.09 0.10 0.09 0.08 0.06 0.03 0.02 0.02 0.02 0.02 0.02 0.03 0.04 0.04 0.04 0.06 0.05 0.05 0.05 0.03 0.02 0.03 0.04 0.02 0.02 0.03 0.03 0.04 0.05 0.05 0.02 0.02 0.02 0.01 0.02 0.01 0.01 0.01 0.01 0.01
0.03 0.04 0.06 0.08 0.07 0.06 0.04 0.02 0.02 0.02 0.02 0.02 0.02 0.02 0.03 0.04 0.04 0.04 0.04 0.04 0.04 0.03 0.02 0.02 0.03 0.04 0.03 0.03 0.03 0.03 0.04 0.05 0.03 0.01 0.01 0.01 0.01 0.02 0.01 0.02 0.01 0.01 0.01
0.03 0.04 0.04 0.07 0.05 0.04 0.02 0.01 0.01 0.01 0.01 0.02 0.02 0.04 0.04 0.04 0.04 0.04 0.03 0.02 0.03 0.02 0.02 0.01 0.02 0.03 0.03 0.03 0.03 0.04 0.04 0.03 0.01 0.01 0.01 0.01 0.01 0.02 0.01 0.02 0.01 0.01 0.02
0.02 0.02 0.02 0.04 0.03 0.02 0.01 0.01 0.01 0.02 0.03 0.03 0.03 0.03 0.03 0.03 0.03 0.02 0.01 0.01 0.01 0.01 0.01 0.01 0.02 0.02 0.02 0.02 0.02 0.02 0.02 0.01 0.01 0.01 0.01 0.02 0.03 0.03 0.02 0.02 0.02 0.01 0.02
0.02 0.01 0.01 0.02 0.02 0.02 0.02 0.01 0.02 0.03 0.03 0.03 0.02 0.01 0.01 0.01 0.01 0.01 0.01 0.01 0.01 0.00 0.00 0.01 0.01 0.01 0.01 0.01 0.01 0.01 0.01 0.01 0.01 0.01 0.00 0.01 0.03 0.03 0.02 0.03 0.02 0.02 0.01
0.01 0.01 0.00 0.00 0.00 0.01 0.01 0.01 0.01 0.01 0.01 0.01 0.01 0.00 0.00 0.00 0.00 0.01 0.01 0.01 0.01 0.01 0.01 0.01 0.01 0.01 0.01 0.01 0.01 0.01 0.02 0.01 0.01 0.01 0.01 0.01 0.03 0.05 0.03 0.02 0.02 0.02 0.02
0.01 0.00 0.00 0.00 0.00 0.00 0.00 0.00 0.01 0.00 0.00 0.00 0.00 0.00 0.00 0.00 0.00 0.00 0.00 0.01 0.01 0.01 0.01 0.01 0.01 0.01 0.01 0.01 0.01 0.02 0.02 0.01 0.01 0.00 0.01 0.03 0.04 0.05 0.04 0.01 0.01 0.02 0.02
0.00 0.00 0.00 0.00 0.00 0.00 0.00 0.00 0.00 0.00 0.00 0.00 0.00 0.00 0.00 0.00 0.00 0.00 0.00 0.01 0.02 0.01 0.01 0.01 0.01 0.01 0.00 0.00 0.01 0.01 0.01 0.01 0.01 0.00 0.01 0.03 0.05 0.05 0.04 0.03 0.02 0.02 0.03
0.01 0.00 0.00 0.00 0.00 0.00 0.00 0.00 0.00 0.00 0.00 0.00 0.00 0.00 0.00 0.00 0.00 0.00 0.00 0.00 0.00 0.00 0.00 0.00 0.00 0.00 0.00 0.00 0.01 0.01 0.01 0.01 0.01 0.00 0.01 0.03 0.05 0.06 0.05 0.04 0.04 0.04 0.03
0.01 0.00 0.00 0.00 0.00 0.00 0.00 0.00 0.00 0.00 0.00 0.00 0.00 0.00 0.00 0.00 0.00 0.00 0.00 0.00 0.00 0.00 0.00 0.00 0.00 0.00 0.00 0.01 0.01 0.01 0.00 0.00 0.00 0.00 0.01 0.04 0.06 0.06 0.06 0.05 0.05 0.05 0.05
0.00 0.00 0.00 0.00 0.00 0.00 0.00 0.00 0.00 0.00 0.00 0.00 0.00 0.00 0.00 0.00 0.00 0.00 0.00 0.00 0.00 0.00 0.00 0.00 0.00 0.00 0.01 0.01 0.01 0.01 0.00 0.00 0.00 0.00 0.01 0.04 0.06 0.06 0.06 0.05 0.06 0.05 0.06
0.00 0.00 0.00 0.00 0.00 0.00 0.00 0.00 0.00 0.00 0.00 0.00 0.00 0.00 0.00 0.00 0.00 0.00 0.00 0.00 0.00 0.00 0.00 0.00 0.00 0.00 0.01 0.02 0.01 0.01 0.01 0.00 0.01 0.00 0.01 0.02 0.03 0.04 0.07 0.08 0.08 0.07 0.10
0.00 0.00 0.00 0.00 0.00 0.00 0.00 0.00 0.00 0.00 0.00 0.00 0.00 0.00 0.00 0.00 0.00 0.00 0.00 0.00 0.00 0.00 0.00 0.01 0.00 0.00 0.01 0.02 0.01 0.02 0.02 0.01 0.01 0.01 0.01 0.02 0.02 0.05 0.08 0.09 0.09 0.10 0.12
0.00 0.00 0.00 0.00 0.00 0.00 0.00 0.00 0.00 0.00 0.00 0.00 0.00 0.00 0.00 0.00 0.00 0.00 0.00 0.00 0.00 0.00 0.00 0.01 0.01 0.01 0.01 0.01 0.01 0.02 0.04 0.04 0.01 0.01 0.01 0.01 0.02 0.03 0.04 0.08 0.12 0.10 0.09
0.00 0.00 0.00 0.00 0.00 0.00 0.00 0.00 0.00 0.00 0.00 0.00 0.00 0.00 0.00 0.00 0.00 0.00 0.00 0.00 0.00 0.00 0.00 0.00 0.01 0.01 0.01 0.01 0.01 0.02 0.04 0.03 0.02 0.01 0.01 0.01 0.01 0.01 0.02 0.06 0.14 0.11 0.09
0.00 0.00 0.00 0.00 0.00 0.00 0.00 0.00 0.00 0.00 0.00 0.00 0.00 0.00 0.00 0.00 0.00 0.00 0.00 0.00 0.00 0.01 0.00 0.00 0.00 0.01 0.02 0.02 0.01 0.02 0.02 0.02 0.02 0.02 0.02 0.01 0.01 0.01 0.02 0.04 0.09 0.11 0.11
0.00 0.00 0.00 0.00 0.00 0.00 0.00 0.00 0.00 0.00 0.00 0.00 0.00 0.00 0.00 0.00 0.00 0.00 0.00 0.00 0.00 0.00 0.00 0.00 0.00 0.01 0.02 0.02 0.01 0.01 0.01 0.02 0.03 0.03 0.03 0.02 0.03 0.02 0.01 0.03 0.06 0.06 0.07
0.00 0.00 0.00 0.00 0.00 0.00 0.00 0.00 0.00 0.00 0.00 0.00 0.00 0.00 0.00 0.00 0.00 0.00 0.00 0.00 0.00 0.01 0.01 0.01 0.01 0.01 0.01 0.01 0.00 0.00 0.01 0.01 0.03 0.03 0.03 0.02 0.02 0.02 0.02 0.02 0.02 0.03 0.04
0.00 0.00 0.00 0.00 0.00 0.00 0.00 0.00 0.00 0.00 0.00 0.00 0.00 0.00 0.00 0.01 0.01 0.00 0.00 0.00 0.00 0.00 0.00 0.01 0.00 0.01 0.01 0.01 0.01 0.01 0.02 0.01 0.02 0.04 0.03 0.03 0.03 0.02 0.02 0.02 0.02 0.02 0.01
0.00 0.00 0.00 0.00 0.00 0.00 0.00 0.00 0.00 0.00 0.00 0.00 0.00 0.00 0.00 0.00 0.01 0.00 0.00 0.00 0.00 0.00 0.00 0.01 0.01 0.00 0.00 0.01 0.00 0.02 0.03 0.02 0.02 0.03 0.02 0.03 0.04 0.03 0.03 0.03 0.01 0.01 0.00
0.00 0.00 0.00 0.00 0.00 0.00 0.00 0.00 0.00 0.00 0.00 0.00 0.00 0.00 0.00 0.00 0.00 0.00 0.00 0.00 0.00 0.00 0.00 0.01 0.01 0.01 0.01 0.01 0.01 0.01 0.02 0.01 0.02 0.03 0.02 0.02 0.02 0.02 0.02 0.02 0.01 0.00 0.00
0.00 0.00 0.00 0.00 0.00 0.00 0.00 0.00 0.00 0.00 0.00 0.00 0.00 0.00 0.00 0.00 0.00 0.00 0.00 0.00 0.00 0.00 0.00 0.00 0.00 0.00 0.00 0.00 0.00 0.01 0.01 0.00 0.01 0.02 0.01 0.01 0.01 0.01 0.01 0.01 0.01 0.00 0.00
MSLP
1013.36 1012.80 1012.40 1012.19 1012.14 1012.22 1012.36 1012.51 1012.64 1012.72 1012.77 1012.82 1012.90 1013.03 1013.24 1013.50 1013.79 1014.07 1014.31 1014.48 1014.60 1014.67 1014.72 1014.77 1014.84 1014.94 1015.05 1015.16 1015.26 1015.32 1015.35 1015.35 1015.34 1015.34 1015.34 1015.36 1015.37 1015.37 1015.33 1015.25 1015.13 1014.98 1014.83
1013.34 1012.86 1012.51 1012.34 1012.32 1012.41 1012.56 1012.71 1012.83 1012.91 1012.97 1013.03 1013.13 1013.29 1013.51 1013.79 1014.09 1014.37 1014.61 1014.78 1014.88 1014.94 1014.97 1015.00 1015.05 1015.12 1015.21 1015.29 1015.36 1015.41 1015.43 1015.44 1015.44 1015.44 1015.45 1015.47 1015.48 1015.46 1015.41 1015.33 1015.21 1015.08 1014.95
1013.26 1012.84 1012.56 1012.44 1012.46 1012.59 1012.76 1012.93 1013.07 1013.17 1013.24 1013.32 1013.43 1013.60 1013.83 1014.09 1014.37 1014.63 1014.84 1014.98 1015.07 1015.11 1015.13 1015.15 1015.19 1015.25 1015.32 1015.40 1015.46 1015.50 1015.53 1015.54 1015.55 1015.57 1015.59 1015.61 1015.61 1015.59 1015.54 1015.45 1015.35 1015.24 1015.14
1013.17 1012.83 1012.62 1012.56 1012.63 1012.79 1013.00 1013.20 1013.37 1013.49 1013.59 1013.68 1013.80 1013.96 1014.16 1014.40 1014.63 1014.84 1015.01 1015.12 1015.18 1015.21 1015.22 1015.25 1015.30 1015.37 1015.45 1015.53 1015.60 1015.65 1015.69 1015.71 1015.73 1015.75 1015.78 1015.79 1015.79 1015.76 1015.71 1015.63 1015.55 1015.46 1015.38
1013.19 1012.91 1012.76 1012.75 1012.87 1013.07 1013.31 1013.54 1013.73 1013.87 1013.99 1014.09 1014.20 1014.34 1014.51 1014.69 1014.87 1015.03 1015.14 1015.22 1015.26 1015.28 1015.32 1015.36 1015.44 1015.53 1015.63 1015.73 1015.81 1015.88 1015.92 1015.96 1015.98 1016.00 1016.02 1016.02 1016.01 1015.97 1015.91 1015.84 1015.77 1015.70 1015.65
1013.37 1013.15 1013.04 1013.08 1013.22 1013.45 1013.70 1013.94 1014.14 1014.29 1014.40 1014.50 1014.60 1014.72 1014.85 1014.98 1015.11 1015.21 1015.29 1015.33 1015.36 1015.40 1015.45 1015.52 1015.63 1015.75 1015.88 1016.00 1016.09 1016.17 1016.22 1016.25 1016.28 1016.29 1016.30 1016.28 1016.25 1016.20 1016.13 1016.06 1015.99 1015.93 1015.89
1013.75 1013.56 1013.49 1013.55 1013.71 1013.93 1014.17 1014.39 1014.57 1014.71 1014.81 1014.90 1014.98 1015.07 1015.17 1015.27 1015.36 1015.42 1015.47 1015.50 1015.52 1015.57 1015.64 1015.74 1015.87 1016.02 1016.17 1016.30 1016.40 1016.48 1016.53 1016.56 1016.57 1016.57 1016.56 1016.54 1016.49 1016.42 1016.34 1016.26 1016.18 1016.12 1016.07
1014.27 1014.12 1014.08 1014.14 1014.29 1014.49 1014.69 1014.87 1015.01 1015.11 1015.18 1015.24 1015.31 1015.39 1015.47 1015.55 1015.62 1015.66 1015.69 1015.71 1015.74 1015.79 1015.88 1015.99 1016.14 1016.30 1016.45 1016.57 1016.67 1016.74 1016.78 1016.80 1016.80 1016.80 1016.78 1016.74 1016.69 1016.61 1016.53 1016.43 1016.35 1016.27 1016.20
1014.88 1014.76 1014.74 1014.80 1014.93 1015.08 1015.22 1015.34 1015.41 1015.46 1015.49 1015.53 1015.58 1015.65 1015.74 1015.81 1015.88 1015.92 1015.94 1015.96 1015.98 1016.03 1016.11 1016.23 1016.36 1016.51 1016.64 1016.75 1016.83 1016.88 1016.91 1016.92 1016.92 1016.92 1016.91 1016.88 1016.83 1016.77 1016.68 1016.59 1016.49 1016.39 1016.30
1015.45 1015.38 1015.38 1015.45 1015.55 1015.65 1015.73 1015.77 1015.77 1015.76 1015.75 1015.76 1015.81 1015.88 1015.97 1016.05 1016.12 1016.17 1016.19 1016.20 1016.21 1016.24 1016.30 1016.39 1016.50 1016.62 1016.72 1016.81 1016.86 1016.90 1016.91 1016.92 1016.93 1016.94 1016.95 1016.95 1016.93 1016.89 1016.83 1016.74 1016.64 1016.53 1016.41
1015.91 1015.89 1015.93 1016.01 1016.10 1016.16 1016.18 1016.15 1016.09 1016.02 1015.97 1015.96 1016.00 1016.07 1016.17 1016.27 1016.34 1016.39 1016.40 1016.39 1016.38 1016.38 1016.40 1016.46 1016.53 1016.61 1016.68 1016.74 1016.77 1016.79 1016.81 1016.82 1016.85 1016.88 1016.93 1016.97 1017.00 1017.00 1016.98 1016.92 1016.83 1016.71 1016.57
1016.20 1016.25 1016.34 1016.45 1016.53 1016.58 1016.56 1016.48 1016.37 1016.26 1016.18 1016.15 1016.18 1016.26 1016.36 1016.46 1016.53 1016.57 1016.56 1016.53 1016.48 1016.44 1016.43 1016.43 1016.47 1016.51 1016.56 1016.60 1016.63 1016.64 1016.66 1016.69 1016.74 1016.80 1016.89 1016.98 1017.06 1017.12 1017.14 1017.12 1017.06 1016.95 1016.80
1016.33 1016.44 1016.59 1016.74 1016.85 1016.90 1016.87 1016.77 1016.64 1016.51 1016.41 1016.37 1016.38 1016.45 1016.54 1016.63 1016.69 1016.71 1016.67 1016.61 1016.52 1016.45 1016.39 1016.37 1016.37 1016.40 1016.44 1016.48 1016.51 1016.54 1016.57 1016.61 1016.68 1016.77 1016.89 1017.02 1017.14 1017.25 1017.33 1017.35 1017.32 1017.23 1017.09
1016.35 1016.52 1016.72 1016.92 1017.07 1017.14 1017.13 1017.04 1016.92 1016.78 1016.68 1016.62 1016.62 1016.67 1016.74 1016.80 1016.83 1016.82 1016.75 1016.65 1016.54 1016.44 1016.36 1016.32 1016.32 1016.35 1016.40 1016.46 1016.51 1016.56 1016.60 1016.66 1016.74 1016.84 1016.96 1017.11 1017.26 1017.41 1017.52 1017.59 1017.59 1017.53 1017.41
1016.31 1016.52 1016.77 1017.02 1017.21 1017.33 1017.36 1017.31 1017.21 1017.09 1016.99 1016.93 1016.91 1016.93 1016.96 1016.98 1016.97 1016.92 1016.82 1016.70 1016.57 1016.45 1016.38 1016.35 1016.37 1016.43 1016.51 1016.60 1016.69 1016.77 1016.83 1016.89 1016.96 1017.04 1017.15 1017.28 1017.43 1017.57 1017.70 1017.80 1017.83 1017.81 1017.71
1016.30 1016.53 1016.81 1017.09 1017.33 1017.50 1017.58 1017.58 1017.53 1017.44 1017.36 1017.28 1017.24 1017.22 1017.20 1017.17 1017.12 1017.03 1016.91 1016.77 1016.64 1016.54 1016.49 1016.49 1016.55 1016.66 1016.80 1016.94 1017.07 1017.17 1017.25 1017.31 1017.35 1017.39 1017.45 1017.53 1017.63 1017.75 1017.87 1017.97 1018.02 1018.02 1017.96
1016.38 1016.61 1016.89 1017.18 1017.45 1017.67 1017.81 1017.87 1017.87 1017.82 1017.75 1017.67 1017.59 1017.53 1017.46 1017.38 1017.28 1017.16 1017.03 1016.89 1016.78 1016.71 1016.70 1016.75 1016.86 1017.03 1017.22 1017.42 1017.60 1017.74 1017.83 1017.87 1017.88 1017.87 1017.86 1017.86 1017.89 1017.95 1018.03 1018.10 1018.16 1018.17 1018.14
1016.57 1016.77 1017.03 1017.32 1017.61 1017.86 1018.05 1018.17 1018.22 1018.21 1018.15 1018.06 1017.96 1017.84 1017.72 1017.59 1017.45 1017.31 1017.18 1017.06 1016.98 1016.95 1016.98 1017.08 1017.25 1017.47 1017.72 1017.98 1018.20 1018.37 1018.48 1018.52 1018.49 1018.43 1018.34 1018.26 1018.21 1018.19 1018.20 1018.23 1018.27 1018.29 1018.27
1016.85 1017.01 1017.24 1017.51 1017.80 1018.07 1018.30 1018.47 1018.57 1018.59 1018.54 1018.44 1018.31 1018.15 1017.98 1017.81 1017.64 1017.49 1017.36 1017.27 1017.22 1017.23 1017.30 1017.45 1017.66 1017.93 1018.22 1018.51 1018.78 1018.99 1019.12 1019.16 1019.13 1019.03 1018.88 1018.73 1018.59 1018.49 1018.43 1018.41 1018.41 1018.42 1018.41
1017.20 1017.32 1017.50 1017.74 1018.02 1018.30 1018.56 1018.77 1018.90 1018.95 1018.91 1018.80 1018.64 1018.44 1018.23 1018.02 1017.84 1017.68 1017.57 1017.50 1017.48 1017.52 1017.63 1017.80 1018.03 1018.31 1018.63 1018.95 1019.25 1019.50 1019.67 1019.74 1019.72 1019.62 1019.45 1019.25 1019.05 1018.88 1018.76 1018.68 1018.64 1018.62 1018.60
1017.56 1017.65 1017.80 1018.00 1018.26 1018.54 1018.81 1019.05 1019.21 1019.28 1019.25 1019.13 1018.95 1018.72 1018.48 1018.25 1018.05 1017.90 1017.80 1017.75 1017.75 1017.80 1017.92 1018.09 1018.31 1018.59 1018.91 1019.25 1019.57 1019.86 1020.08 1020.21 1020.24 1020.17 1020.01 1019.81 1019.58 1019.37 1019.19 1019.06 1018.98 1018.93 1018.89
1017.89 1017.96 1018.08 1018.26 1018.50 1018.77 1019.06 1019.31 1019.49 1019.58 1019.56 1019.44 1019.25 1019.00 1018.74 1018.50 1018.29 1018.14 1018.04 1018.01 1018.02 1018.07 1018.17 1018.32 1018.52 1018.76 1019.06 1019.39 1019.73 1020.06 1020.33 1020.53 1020.64 1020.64 1020.54 1020.37 1020.16 1019.93 1019.73 1019.56 1019.43 1019.34 1019.28
1018.12 1018.21 1018.32 1018.48 1018.71 1018.98 1019.27 1019.53 1019.74 1019.85 1019.85 1019.74 1019.54 1019.29 1019.02 1018.76 1018.56 1018.41 1018.32 1018.28 1018.29 1018.33 1018.40 1018.51 1018.65 1018.85 1019.11 1019.41 1019.75 1020.11 1020.44 1020.72 1020.92 1021.01 1021.00 1020.90 1020.73 1020.53 1020.32 1020.12 1019.97 1019.85 1019.75
1018.25 1018.37 1018.49 1018.65 1018.87 1019.14 1019.43 1019.71 1019.94 1020.08 1020.10 1020.01 1019.82 1019.58 1019.31 1019.06 1018.86 1018.71 1018.63 1018.59 1018.58 1018.60 1018.63 1018.69 1018.77 1018.91 1019.11 1019.37 1019.70 1020.07 1020.45 1020.80 1021.09 1021.28 1021.37 1021.35 1021.25 1021.09 1020.89 1020.70 1020.52 1020.37 1020.25
1018.25 1018.41 1018.56 1018.73 1018.96 1019.23 1019.54 1019.84 1020.09 1020.26 1020.31 1020.25 1020.10 1019.87 1019.62 1019.39 1019.19 1019.05 1018.96 1018.92 1018.91 1018.90 1018.90 1018.90 1018.93 1019.00 1019.14 1019.36 1019.65 1020.01 1020.41 1020.81 1021.17 1021.44 1021.62 1021.70 1021.67 1021.56 1021.40 1021.21 1021.02 1020.85 1020.70
1018.12 1018.35 1018.54 1018.73 1018.97 1019.25 1019.57 1019.89 1020.18 1020.38 1020.48 1020.46 1020.34 1020.15 1019.93 1019.71 1019.53 1019.40 1019.32 1019.28 1019.26 1019.24 1019.21 1019.18 1019.16 1019.18 1019.26 1019.42 1019.67 1020.00 1020.39 1020.80 1021.19 1021.53 1021.77 1021.92 1021.96 1021.90 1021.78 1021.61 1021.43 1021.24 1021.08
Thickness
5766 5769 5769 5769 5769 5767 5766 5765 5763 5762 5761 5759 5757 5755 5754 5752 5750 5749 5749 5748 5747 5747 5747 5747 5747 5747 5748 5748 5748 5749 5750 5750 5751 5752 5754 5755 5756 5757 5759 5760 5762 5763 5764
5767 5768 5768 5768 5767 5765 5764 5763 5761 5759 5758 5756 5754 5752 5751 5749 5747 5747 5746 5745 5744 5744 5744 5743 5744 5744 5744 5745 5745 5746 5747 5747 5748 5749 5751 5752 5753 5754 5756 5758 5760 5761 5763
5766 5766 5766 5766 5764 5763 5762 5760 5759 5757 5755 5753 5751 5750 5748 5746 5745 5744 5743 5742 5741 5741 5740 5740 5740 5741 5741 5742 5742 5743 5744 5745 5746 5747 5748 5749 5750 5752 5754 5755 5758 5760 5761
5764 5764 5764 5763 5762 5761 5759 5758 5756 5755 5753 5751 5749 5747 5745 5744 5742 5741 5739 5738 5738 5737 5736 5737 5737 5738 5738 5739 5739 5740 5741 5742 5743 5744 5745 5746 5748 5750 5752 5753 5756 5758 5760
5762 5762 5762 5761 5759 5758 5756 5755 5753 5752 5750 5748 5746 5744 5743 5741 5739 5738 5737 5735 5734 5734 5733 5733 5734 5734 5735 5736 5736 5737 5738 5739 5740 5741 5742 5743 5745 5747 5749 5751 5753 5756 5758
5759 5759 5759 5758 5757 5756 5754 5752 5751 5749 5747 5746 5744 5742 5740 5738 5736 5735 5734 5733 5732 5731 5730 5730 5731 5731 5732 5732 5733 5734 5735 5736 5737 5738 5739 5741 5742 5744 5746 5749 5751 5753 5756
5756 5756 5756 5755 5754 5753 5751 5750 5748 5746 5745 5743 5741 5740 5738 5736 5734 5732 5731 5730 5729 5728 5727 5728 5728 5728 5729 5729 5730 5731 5732 5733 5734 5735 5736 5738 5740 5742 5744 5746 5749 5751 5754
5754 5753 5753 5752 5751 5750 5749 5747 5745 5744 5742 5741 5739 5737 5735 5733 5731 5730 5728 5727 5726 5725 5725 5725 5725 5726 5726 5726 5727 5728 5730 5731 5731 5732 5734 5735 5737 5740 5742 5744 5746 5748 5751
5751 5750 5749 5748 5748 5747 5745 5744 5743 5741 5740 5739 5737 5735 5733 5731 5729 5727 5726 5725 5724 5723 5723 5723 5723 5723 5724 5724 5725 5726 5727 5727 5728 5729 5731 5733 5735 5737 5739 5741 5743 5745 5748
5748 5747 5746 5745 5744 5744 5743 5742 5740 5739 5738 5736 5735 5733 5731 5729 5727 5725 5723 5722 5722 5721 5721 5721 5720 5721 5721 5722 5722 5723 5724 5724 5725 5726 5728 5730 5732 5735 5736 5738 5741 5743 5745
5744 5744 5743 5742 5742 5741 5740 5739 5738 5736 5735 5734 5733 5731 5729 5727 5724 5722 5721 5720 5719 5719 5718 5718 5718 5718 5718 5719 5720 5720 5720 5721 5722 5723 5725 5727 5730 5732 5734 5736 5738 5741 5743
5739 5740 5741 5740 5739 5739 5738 5736 5735 5734 5733 5732 5731 5729 5727 5724 5722 5720 5718 5717 5717 5716 5716 5715 5715 5715 5715 5716 5716 5717 5717 5718 5719 5720 5722 5725 5727 5729 5732 5734 5736 5739 5741
5738 5739 5739 5738 5738 5737 5736 5735 5734 5732 5732 5731 5729 5727 5725 5722 5720 5718 5716 5715 5714 5713 5712 5712 5712 5711 5712 5712 5713 5713 5714 5714 5715 5717 5719 5722 5724 5727 5729 5732 5734 5737 5739
5736 5737 5738 5738 5736 5735 5734 5733 5732 5731 5730 5728 5727 5725 5723 5720 5718 5715 5713 5712 5711 5710 5709 5708 5708 5708 5709 5709 5710 5710 5711 5711 5712 5714 5716 5719 5722 5725 5727 5730 5732 5735 5737
5735 5736 5737 5737 5736 5734 5733 5732 5731 5730 5728 5727 5725 5723 5721 5719 5716 5713 5711 5710 5708 5707 5706 5706 5705 5705 5706 5706 5706 5707 5707 5708 5709 5711 5713 5716 5719 5722 5725 5727 5730 5732 5734
5735 5736 5736 5735 5735 5733 5732 5731 5729 5728 5727 5725 5724 5722 5720 5717 5714 5712 5710 5708 5707 5705 5704 5703 5703 5703 5702 5703 5703 5703 5704 5705 5707 5708 5711 5713 5716 5719 5721 5724 5727 5729 5731
5734 5735 5734 5734 5733 5732 5731 5730 5728 5727 5726 5724 5722 5720 5718 5716 5714 5711 5709 5707 5705 5704 5703 5702 5701 5701 5700 5699 5699 5700 5701 5702 5704 5705 5708 5710 5713 5715 5718 5721 5723 5726 5728
5734 5734 5734 5735 5732 5731 5729 5728 5726 5725 5724 5722 5720 5719 5717 5715 5713 5711 5708 5706 5705 5704 5702 5701 5699 5698 5696 5695 5695 5696 5697 5699 5700 5702 5704 5707 5709 5711 5714 5717 5719 5722 5725
5733 5733 5732 5732 5730 5729 5727 5726 5725 5723 5722 5720 5719 5718 5716 5715 5713 5711 5708 5706 5704 5703 5701 5700 5696 5696 5693 5693 5692 5692 5694 5695 5697 5699 5701 5703 5705 5707 5710 5712 5715 5718 5720
5732 5731 5730 5729 5728 5727 5725 5724 5722 5721 5720 5719 5718 5717 5715 5714 5712 5710 5708 5706 5704 5702 5699 5697 5695 5694 5692 5692 5692 5690 5691 5693 5694 5696 5698 5700 5702 5704 5706 5709 5711 5713 5716
5728 5728 5728 5727 5725 5725 5723 5721 5719 5717 5717 5716 5716 5715 5714 5713 5711 5710 5707 5705 5704 5701 5699 5697 5695 5693 5690 5691 5690 5687 5688 5690 5692 5693 5695 5697 5699 5701 5703 5705 5707 5709 5712
5726 5726 5725 5725 5724 5724 5723 5721 5719 5717 5716 5715 5714 5714 5713 5712 5711 5709 5707 5705 5703 5701 5699 5698 5696 5692 5689 5689 5688 5684 5681 5684 5687 5690 5692 5694 5695 5698 5700 5702 5703 5706 5708
5724 5725 5726 5724 5724 5723 5723 5721 5719 5717 5715 5713 5712 5712 5711 5711 5710 5708 5707 5705 5703 5701 5699 5698 5697 5695 5690 5689 5689 5687 5681 5678 5681 5685 5687 5690 5692 5694 5696 5698 5700 5702 5704
5725 5725 5725 5724 5723 5723 5722 5721 5718 5715 5711 5711 5710 5710 5710 5710 5709 5708 5706 5705 5703 5701 5699 5698 5697 5696 5694 5690 5689 5688 5687 5686 5682 5679 5683 5686 5689 5690 5692 5694 5696 5698 5700
5726 5725 5724 5723 5723 5722 5722 5721 5718 5715 5713 5711 5710 5710 5709 5709 5708 5707 5706 5705 5703 5701 5700 5699 5698 5697 5695 5692 5690 5689 5688 5686 5685 5682 5679 5681 5684 5687 5688 5690 5692 5694 5696
5725 5724 5723 5722 5721 5722 5721 5720 5718 5716 5713 5711 5709 5708 5707 5707 5707 5706 5706 5704 5703 5701 5700 5699 5698 5697 5696 5694 5692 5691 5689 5687 5684 5683 5679 5678 5679 5682 5685 5687 5689 5691 5693